Regional Weather Roundup
Issued by NWS Grand Forks, ND

Home | Current Version | Previous Version | Graphics & Text | Print | Product List | Glossary On
Versions: 1 2 3 4 5 6 7 8 9 10 11 12 13 14 15 16 17 18 19 20 21 22 23 24 25 26 27 28 29 30 31 32 33 34 35 36 37 38 39 40 41 42 43 44 45 46 47 48 49 50
231
ASUS43 KFGF 091731
RWRFGF
PRAIRIE TO PINES  WEATHER ROUNDUP
NATIONAL WEATHER SERVICE EASTERN NORTH DAKOTA/GRAND FORKS ND
1100 AM CST FRI DEC 09 2016

 **SATELLITE DATA USED TO AUGMENT SKY COVER AT AUTOMATED STATIONS**
 *****  WEATHER ACROSS EASTERN NORTH DAKOTA  *****

CITY           SKY/WX    TMP DP  RH WIND       PRES   REMARKS
GRAND FORKS    CLOUDY     4  -3  73 NW10      30.60R WCI -11
GRAND FRKS AFB CLOUDY     0  -7  71 NW9       30.60R WCI -15
DEVILS LAKE    MOSUNNY   -6  -9  84 W8        30.55F WCI -21
FARGO          CLOUDY     5  -3  69 NW14      30.60R WCI -12
WAHPETON ARPT  CLOUDY     5   0  78 W9        30.60S WCI  -9
$$

 ***** WEATHER ACROSS CENTRAL AND WESTERN NORTH DAKOTA  *****

CITY           SKY/WX    TMP DP  RH WIND       PRES   REMARKS
BISMARCK       CLOUDY    -1  -7  75 NW7       30.58S WCI -14
MINOT          CLOUDY   -10 -15  78 NW14      30.57R WCI -31
JAMESTOWN      SUNNY     -5  -9  83 NW9       30.55S WCI -22
MINOT AFB      CLOUDY   -13 -19  76 NW12      30.57R WCI -34
GARRISON         N/A     -9 -14  78 NW10      30.54R WCI -27
WILLISTON      CLOUDY    -8 -11  86 CALM      30.60R
DICKINSON      CLOUDY   -14 -18  82 NW3       30.46R
HETTINGER      CLOUDY    -6 -10  83 N3        30.47R FOG
$$

 *****  OTHER AIRPORT OBSERVATIONS IN OUR AREA  *****

CITY           SKY/WX    TMP DP  RH WIND       PRES   REMARKS
WALHALLA         N/A     -4  -4 100 W6        30.59S WCI -16
GRAFTON AIRPOR CLOUDY     0  -8  71 NW13      30.62S WCI -18
VALLEY CITY AR FAIR       0  -6  78 NW8       30.57F WCI -15
CANDO          FAIR      -8 -11  84 NW9       30.57F WCI -25
CAVALIER APRT    N/A     -2  -9  71 W12       30.59F WCI -20
GWINNER        FAIR       5   0  78 NW10      30.57F WCI -10
SHEYENNE NWR     N/A      3  -6  65 NW5       29.95S WCI  -6
ROLLA          FAIR      -9 -13  84 NW13      30.51F WCI -30
 ***** THE ABOVE OBSERVATIONS ARE NON NWS ARE NOT QUALITY
       CONTROLLED AND MAY MIS-REPORT RAIN FOR SNOW...
$$

  *****  WEATHER ACROSS NORTHERN MINNESOTA  *****

CITY           SKY/WX    TMP DP  RH WIND       PRES   REMARKS
FLAG ISLAND    CLOUDY     3  -2  78 W13       30.49F WCI -14
WARROAD        CLOUDY     3  -4  72 W7        30.51F WCI  -9
ROSEAU         CLOUDY     3  -4  72 NW8       30.53F WCI -10
HALLOCK        MOSUNNY    1  -4  78 CALM      30.58S
THF RVR FALLS  FLURRIES   7   2  80 NW6       30.55R WCI  -3
BAUDETTE       CLOUDY     3  -6  66 W14       30.49F WCI -15
WASKISH        CLOUDY     7   1  78 W6        30.50S WCI  -3
CROOKSTON      CLOUDY     7   3  85 NW12      30.58F WCI  -9
STEPHEN NDAWN    N/A      3   0  85 N6          N/A  WCI  -8
GREENBUSH NDAW   N/A      1   0  92 NW8         N/A  WCI -12
$$
  *****  WEATHER ACROSS CENTRAL AND WEST MINNESOTA  *****

CITY           SKY/WX    TMP DP  RH WIND       PRES   REMARKS
FOSSTON        LGT SNOW   7   1  78 W9        30.52F WCI  -7
BEMIDJI        CLOUDY     6   1  78 W5        30.49F WCI  -3
PARK RAPIDS    CLOUDY     8   1  73 W6        30.49S WCI  -2
ELBOW LAKE     CLOUDY     3  -1  83 W7        30.56F FOG     WCI  -9
WADENA         LGT SNOW   9   1  72 W5        30.51S WCI   0
DETROIT LAKES  LGT SNOW   9   3  78 NW7       30.53S WCI  -3
MOORHEAD       CLOUDY     5   0  78 NW9       30.59F HAZE    WCI  -9
FERGUS FALLS   CLOUDY     3   0  85 W7        30.61F HAZE    WCI  -9
MORRIS MN      CLOUDY     3  -2  78 W8        30.56F WCI -10
STAPLES        CLOUDY     9   1  72 W5        30.51F WCI   0
$$
  *****  WEATHER ELSEWHERE ACROSS MINNESOTA  *****

CITY           SKY/WX    TMP DP  RH WIND       PRES   REMARKS
DULUTH         PTSUNNY   10   1  67 NW10      30.45F WCI  -4
INTRNTL FALLS  LGT SNOW   5  -2  72 W10       30.47F WCI -10
ELY            CLOUDY     7   0  72 W12       30.42F HAZE    WCI  -9
CLOQUET        LGT SNOW  10   1  67 W8        30.47S WCI  -1
WHEATON        MOSUNNY    7   0  72 W7        30.60F WCI  -5
BRAINERD       CLOUDY    11   3  70 NW8       30.51S WCI  -1
HIBBING        LGT SNOW   4  -2  76 NW15      30.46F WCI -14
ALEXANDRIA       N/A      6   2  83 MISG      30.54
SAINT CLOUD    CLOUDY    12   7  80 W5        30.54F WCI   4
MINNEAPOLIS    PTSUNNY   15   8  73 VRB6      30.56S WCI   6
$$

  *****  WEATHER ACROSS SOUTH DAKOTA  *****

CITY           SKY/WX    TMP DP  RH WIND       PRES   REMARKS
SIOUX FALLS    CLOUDY     8   2  76 CALM      30.56F
BROOKINGS      CLOUDY     3  -2  79 NW3       30.53F
WATERTOWN      CLOUDY     1  -3  83 NW8       30.52F WCI -13
HURON          CLOUDY     4  -1  80 NE5       30.58F WCI  -5
SISSETON         N/A      4  -3  73 N13       30.57F WCI -13
ABERDEEN       MOSUNNY    5  -4  66 N7        30.59F WCI  -7
MITCHELL       CLOUDY     6   0  76 NE6       30.58F WCI  -4
PIERRE         LGT SNOW   4  -2  76 E12       30.50S WCI -12
MOBRIDGE       CLOUDY     1  -6  72 N6        30.52R HAZE    WCI -10
RAPID CITY     FLURRIES   2  -3  80 N12       30.35R WCI -15
$$

  *****  SOME WEATHER IN NEARBY STATES *****

CITY           SKY/WX    TMP DP  RH WIND       PRES   REMARKS
GLASGOW MT     CLOUDY    -3  -7  82 E12       30.51S WCI -21
GREAT FALLS MT LGT SNOW  -1  -7  75 E5        30.28S WCI -11
CHEYENNE WY    SUNNY     41  24  51 W23G31    30.06R
SCOTTSBLUFF NE SUNNY     21   9  59 N3        30.18R
OMAHA NE       CLOUDY    15   7  70 S3        30.63F
DES MOINES IA  CLOUDY    18   8  65 VRB5      30.61F WCI  11
DAVENPORT IA   SUNNY     21  14  74 W9        30.59F WCI  11
CHICAGO IL     FLURRIES  24  16  71 W10       30.52F WCI  14
EAU CLAIRE WI  CLOUDY    16  12  84 W6        30.52F WCI   7
LA CROSSE WI   MOSUNNY   22  10  60 NW7       30.57S WCI  13
$$

  *****  SOME NATIONAL WEATHER *****

CITY           SKY/WX    TMP DP  RH WIND       PRES   REMARKS
LA GUARDIA NY  MOSUNNY   40  19  43 NW18G30   30.10F
RALEIGH NC     SUNNY     38  14  37 N10       30.40F
ATLANTA GA     SUNNY     38  17  42 N15       30.47F
NEW ORLEANS LA MOSUNNY   43  26  51 N13G21    30.55F
OKLAHOMA CITY  CLOUDY    27  12  53 SE10      30.60F WCI  17
ALBUQUERQUE NM MOSUNNY   33  24  69 VRB6      30.40S
SALT LAKE CITY CLOUDY    33  29  85 W9        30.21R
LOS ANGELES CA PTSUNNY   58  50  75 SE5       30.27R
BOISE ID       MIX PCPN  28  25  88 CALM      30.16R
SEATTLE WA     LGT RAIN  33  30  88 E17G23    29.97S FOG     WCI  22
$$

*** WEATHER ACROSS MANITOBA...SASKATCHEWAN AND ONTARIO ***
                ***ONTARIO***

CITY           SKY/WX    TMP DP  RH WIND       PRES   REMARKS
GERALDTON      FLURRIES   9   3  78 NW7       30.33F WCI  -3
THUNDER BAY    FLURRIES  16   7  67 W5        30.44F WCI   9
SIOUX LOOKOUT  LGT SNOW   7   1  78 N6        30.39F WCI  -3
TORONTO        PTSUNNY   28  12  50 W9        30.23F WCI  20
BIG TROUT LK   FLURRIES   0  -6  78 NW10      30.41F WCI -17
PICKLE LAKE    FLURRIES   1  -4  78 NW5       30.36S WCI  -8
DRYDEN         MOSUNNY    5   0  78 W10       30.39F WCI -10
KENORA         FLURRIES   3  -2  78 W7        30.44F WCI  -9
$$
                *** MANITOBA***

CITY           SKY/WX    TMP DP  RH WIND       PRES   REMARKS
BRANDON        FLURRIES  -6 -11  77 NW12      30.56S WCI -24
DAUPHIN        PTSUNNY   -9 -15  77 W8        30.62R WCI -26
ISLAND LAKE    FLURRIES -11 -17  77 NW8       30.52S WCI -28
PILOT MOUND      N/A    -13 -18  77 NW6         N/A  WCI -27
THE PAS        FLURRIES  -8 -13  77 NW12      30.63R WCI -27
THOMPSON       FLURRIES -11 -17  77 W5        30.58F WCI -23
WINNIPEG       FLURRIES   1  -4  78 W13       30.57S WCI -16
LYNN LAKE      CLOUDY   -11 -15  84 NW6       30.59S WCI -25
CHURCHILL      PTCLDY    -6 -11  77 NW20G26   30.49F WCI -29
GILLAM         PTCLDY    -8 -13  77 W8        30.53F WCI -23
$$
                ***SASKATCHEWAN***

CITY           SKY/WX    TMP DP  RH WIND       PRES   REMARKS
ESTEVAN        MOSUNNY  -20 -26  76 W8        30.57R WCI -39
KINDERSLEY     CLOUDY    -9 -13  84 SE3       30.52S
LLOYDMINSTER   CRYSTALS -13 -17  84 CALM      30.54R
PRINCE ALBERT  CRYSTALS -13 -18  77 N3        30.63S
REGINA         MOSUNNY  -11 -17  77 NW6       30.58R WCI -25
YORKTON        SUNNY    -11 -17  77 NW8       30.57S WCI -28
N. BATTLEFORD  CLEAR    -18 -24  76 CALM      30.62S
LA RONGE       CLEAR    -18 -24  76 W6        30.66S WCI -33
SASKATOON      CRYSTALS -11 -17  77 N3        30.63R
SWIFT CURRENT  MOSUNNY   -6 -11  77 NE5       30.44F WCI -17
$$
NOTE: THESE ARE AUTOMATED STATIONS WITH LIMITED QUALITY CONTROL
      "FAIR" INDICATES FEW OR NO CLOUDS BELOW 12,000 FEET WITH NO
      SIGNIFICANT WEATHER AND/OR OBSTRUCTIONS TO VISIBILITY.
      SKY/WX - SKY CONDITION AND SIGNIFICANT WEATHER.
      TMP - AIR TEMPERATURE.    DP   - DEWPOINT TEMPERATURE.
      RH  - RELATIVE HUMIDITY.  PRES - PRESSURE.
      HX  - HEAT INDEX.         WCI  - WIND CHILL INDEX.
$




USA.gov is the U.S. government's official web portal to all federal, state and local government web resources and services.